Time,TemperatureF,DewpointF,PressureIn,WindDirection,WindDirectionDegrees,WindSpeedMPH,WindSpeedGustMPH,Humidity,HourlyPrecipIn,Conditions,Clouds,dailyrainin,SoftwareType,DateUTC
2013-05-24 00:00:00,57.1,50.0,25.65,SSE,152,21.0,33.0,76,0.00,,,0.00,weatherlink.com 1.10,2013-05-24 06:00:00,
2013-05-24 00:15:00,57.1,50.0,25.65,SSE,159,23.0,33.0,76,0.00,,,0.00,weatherlink.com 1.10,2013-05-24 06:15:00,
2013-05-24 00:30:00,57.1,50.0,25.64,SSE,155,24.0,38.0,77,0.00,,,0.00,weatherlink.com 1.10,2013-05-24 06:30:00,
2013-05-24 00:45:00,56.8,50.0,25.64,SSE,158,28.0,32.0,78,0.00,,,0.00,weatherlink.com 1.10,2013-05-24 06:45:00,
2013-05-24 01:00:00,56.8,50.0,25.64,South,180,17.0,29.0,78,0.00,,,0.00,weatherlink.com 1.10,2013-05-24 07:00:00,
2013-05-24 01:15:00,56.5,50.0,25.64,SE,146,18.0,32.0,79,0.00,,,0.00,weatherlink.com 1.10,2013-05-24 07:15:00,
2013-05-24 01:30:00,56.3,50.0,25.63,South,190,27.0,32.0,80,0.00,,,0.00,weatherlink.com 1.10,2013-05-24 07:30:00,
2013-05-24 01:45:00,55.7,51.0,25.63,SSE,158,23.0,32.0,83,0.00,,,0.00,weatherlink.com 1.10,2013-05-24 07:45:00,
2013-05-24 02:00:00,54.1,51.0,25.63,SSE,153,18.0,32.0,90,0.00,,,0.00,weatherlink.com 1.10,2013-05-24 08:00:00,
2013-05-24 02:15:00,54.1,52.0,25.62,SSE,158,21.0,28.0,91,0.00,,,0.00,weatherlink.com 1.10,2013-05-24 08:15:00,
2013-05-24 02:30:00,55.0,52.0,25.62,SSE,156,26.0,29.0,88,0.00,,,0.00,weatherlink.com 1.10,2013-05-24 08:30:00,
2013-05-24 02:45:00,55.4,52.0,25.62,SSE,161,23.0,31.0,87,0.00,,,0.00,weatherlink.com 1.10,2013-05-24 08:45:00,
2013-05-24 03:00:00,55.2,52.0,25.61,SSE,155,18.0,29.0,90,0.00,,,0.00,weatherlink.com 1.10,2013-05-24 09:00:00,
2013-05-24 03:15:00,54.8,53.0,25.61,SSE,156,30.0,32.0,93,0.00,,,0.00,weatherlink.com 1.10,2013-05-24 09:15:00,
2013-05-24 03:30:00,54.6,53.0,25.61,South,170,22.0,33.0,93,0.00,,,0.00,weatherlink.com 1.10,2013-05-24 09:30:00,
2013-05-24 03:46:00,54.3,53.0,25.60,SSE,155,21.0,34.0,94,0.00,,,0.00,weatherlink.com 1.10,2013-05-24 09:46:00,
2013-05-24 04:01:00,54.3,53.0,25.60,SSE,155,25.0,32.0,95,0.00,,,0.00,weatherlink.com 1.10,2013-05-24 10:01:00,
2013-05-24 04:16:00,54.3,53.0,25.59,SSE,160,22.0,35.0,94,0.00,,,0.00,weatherlink.com 1.10,2013-05-24 10:16:00,
2013-05-24 04:31:00,54.4,53.0,25.59,SSE,163,28.0,34.0,94,0.00,,,0.00,weatherlink.com 1.10,2013-05-24 10:31:00,
2013-05-24 04:46:00,54.3,53.0,25.59,South,171,23.0,34.0,94,0.00,,,0.00,weatherlink.com 1.10,2013-05-24 10:46:00,
2013-05-24 05:01:00,53.9,53.0,25.60,SSE,166,27.0,34.0,95,0.00,,,0.00,weatherlink.com 1.10,2013-05-24 11:01:00,
2013-05-24 05:16:00,53.8,52.0,25.59,South,177,30.0,34.0,95,0.00,,,0.00,weatherlink.com 1.10,2013-05-24 11:16:00,
2013-05-24 05:31:00,53.9,53.0,25.59,SSE,165,25.0,36.0,95,0.00,,,0.00,weatherlink.com 1.10,2013-05-24 11:31:00,
2013-05-24 05:46:00,53.9,53.0,25.59,SSE,163,20.0,36.0,95,0.00,,,0.00,weatherlink.com 1.10,2013-05-24 11:46:00,
2013-05-24 06:16:00,53.8,53.0,25.59,SSE,163,26.0,34.0,96,0.00,,,0.00,weatherlink.com 1.10,2013-05-24 12:16:00,
2013-05-24 06:31:00,53.7,53.0,25.59,SSE,163,28.0,36.0,96,0.00,,,0.00,weatherlink.com 1.10,2013-05-24 12:31:00,
2013-05-24 06:46:00,53.6,53.0,25.60,SSE,167,25.0,33.0,96,0.00,,,0.00,weatherlink.com 1.10,2013-05-24 12:46:00,
2013-05-24 07:01:00,53.6,53.0,25.61,South,174,27.0,31.0,96,0.00,,,0.00,weatherlink.com 1.10,2013-05-24 13:01:00,
2013-05-24 07:16:00,53.6,53.0,25.61,South,190,28.0,33.0,96,0.00,,,0.00,weatherlink.com 1.10,2013-05-24 13:16:00,
2013-05-24 07:31:00,53.7,53.0,25.59,South,173,28.0,35.0,97,0.00,,,0.00,weatherlink.com 1.10,2013-05-24 13:31:00,
2013-05-24 07:46:00,53.7,53.0,25.60,SSE,166,25.0,34.0,97,0.00,,,0.00,weatherlink.com 1.10,2013-05-24 13:46:00,
2013-05-24 08:01:00,53.9,53.0,25.61,SSE,151,21.0,36.0,97,0.00,,,0.00,weatherlink.com 1.10,2013-05-24 14:01:00,
2013-05-24 08:16:00,54.1,53.0,25.61,SSE,156,25.0,37.0,97,0.00,,,0.00,weatherlink.com 1.10,2013-05-24 14:16:00,
2013-05-24 08:31:00,54.5,54.0,25.61,SSE,165,19.0,30.0,97,0.00,,,0.00,weatherlink.com 1.10,2013-05-24 14:31:00,
2013-05-24 08:46:00,55.0,54.0,25.61,SSE,166,24.0,34.0,97,0.00,,,0.00,weatherlink.com 1.10,2013-05-24 14:46:00,
2013-05-24 09:01:00,55.5,54.0,25.61,SSE,166,24.0,32.0,96,0.00,,,0.00,weatherlink.com 1.10,2013-05-24 15:01:00,
2013-05-24 09:16:00,55.9,55.0,25.63,SSE,167,16.0,32.0,96,0.00,,,0.00,weatherlink.com 1.10,2013-05-24 15:16:00,
2013-05-24 09:31:00,56.3,55.0,25.64,SSE,162,13.0,23.0,96,0.00,,,0.00,weatherlink.com 1.10,2013-05-24 15:31:00,
2013-05-24 09:46:00,57.4,56.0,25.63,SSW,198,21.0,31.0,94,0.00,,,0.00,weatherlink.com 1.10,2013-05-24 15:46:00,
2013-05-24 10:01:00,58.1,56.0,25.64,South,173,13.0,24.0,91,0.00,,,0.00,weatherlink.com 1.10,2013-05-24 16:01:00,
2013-05-24 10:16:00,58.9,56.0,25.65,SSW,195,15.0,20.0,89,0.00,,,0.00,weatherlink.com 1.10,2013-05-24 16:16:00,
2013-05-24 10:31:00,60.7,56.0,25.64,South,180,17.0,22.0,85,0.00,,,0.00,weatherlink.com 1.10,2013-05-24 16:31:00,
2013-05-24 10:46:00,63.2,57.0,25.63,SSE,160,17.0,24.0,80,0.00,,,0.00,weatherlink.com 1.10,2013-05-24 16:46:00,
2013-05-24 11:01:00,65.2,57.0,25.63,South,172,16.0,24.0,76,0.00,,,0.00,weatherlink.com 1.10,2013-05-24 17:01:00,
2013-05-24 11:16:00,66.6,57.0,25.63,South,179,19.0,25.0,72,0.00,,,0.00,weatherlink.com 1.10,2013-05-24 17:16:00,
2013-05-24 11:31:00,66.7,57.0,25.62,SSE,156,13.0,26.0,71,0.00,,,0.00,weatherlink.com 1.10,2013-05-24 17:31:00,
2013-05-24 11:46:00,67.7,57.0,25.62,SSE,167,14.0,25.0,69,0.00,,,0.00,weatherlink.com 1.10,2013-05-24 17:46:00,
2013-05-24 12:01:00,68.6,58.0,25.61,SSE,162,15.0,23.0,68,0.00,,,0.00,weatherlink.com 1.10,2013-05-24 18:01:00,
2013-05-24 12:16:00,69.8,57.0,25.62,SE,129,14.0,21.0,64,0.00,,,0.00,weatherlink.com 1.10,2013-05-24 18:16:00,
2013-05-24 12:32:00,70.7,57.0,25.61,South,175,15.0,20.0,62,0.00,,,0.00,weatherlink.com 1.10,2013-05-24 18:32:00,
2013-05-24 12:47:00,71.6,57.0,25.61,SE,138,9.0,18.0,61,0.00,,,0.00,weatherlink.com 1.10,2013-05-24 18:47:00,
2013-05-24 13:02:00,71.6,57.0,25.61,SSE,165,12.0,17.0,60,0.00,,,0.00,weatherlink.com 1.10,2013-05-24 19:02:00,
2013-05-24 13:17:00,72.0,57.0,25.61,SSW,206,9.0,17.0,59,0.00,,,0.00,weatherlink.com 1.10,2013-05-24 19:17:00,
2013-05-24 13:32:00,72.8,57.0,25.61,SSE,156,13.0,18.0,58,0.00,,,0.00,weatherlink.com 1.10,2013-05-24 19:32:00,
2013-05-24 13:47:00,73.5,57.0,25.60,SSE,162,13.0,18.0,56,0.00,,,0.00,weatherlink.com 1.10,2013-05-24 19:47:00,
2013-05-24 14:02:00,74.5,57.0,25.60,SSE,159,11.0,19.0,55,0.00,,,0.00,weatherlink.com 1.10,2013-05-24 20:02:00,
2013-05-24 14:17:00,74.5,57.0,25.60,SSE,159,17.0,17.0,54,0.00,,,0.00,weatherlink.com 1.10,2013-05-24 20:17:00,
2013-05-24 14:32:00,75.2,56.0,25.60,SSE,150,6.0,24.0,52,0.00,,,0.00,weatherlink.com 1.10,2013-05-24 20:32:00,
2013-05-24 14:47:00,75.4,55.0,25.60,SSE,153,9.0,20.0,50,0.00,,,0.00,weatherlink.com 1.10,2013-05-24 20:47:00,
2013-05-24 15:02:00,75.2,55.0,25.60,SSE,158,7.0,17.0,50,0.00,,,0.00,weatherlink.com 1.10,2013-05-24 21:02:00,
2013-05-24 15:17:00,76.6,56.0,25.60,SE,127,14.0,19.0,49,0.00,,,0.00,weatherlink.com 1.10,2013-05-24 21:17:00,
2013-05-24 15:32:00,76.5,55.0,25.59,SSE,157,15.0,20.0,47,0.00,,,0.00,weatherlink.com 1.10,2013-05-24 21:32:00,
2013-05-24 15:47:00,77.1,53.0,25.59,SE,129,10.0,20.0,44,0.00,,,0.00,weatherlink.com 1.10,2013-05-24 21:47:00,
2013-05-24 16:02:00,76.4,54.0,25.59,SE,134,9.0,17.0,46,0.00,,,0.00,weatherlink.com 1.10,2013-05-24 22:02:00,
2013-05-24 16:17:00,76.2,53.0,25.59,SE,125,13.0,17.0,45,0.00,,,0.00,weatherlink.com 1.10,2013-05-24 22:17:00,
2013-05-24 16:32:00,76.3,53.0,25.58,ESE,108,13.0,17.0,45,0.00,,,0.00,weatherlink.com 1.10,2013-05-24 22:32:00,
2013-05-24 16:47:00,76.7,54.0,25.58,East,100,14.0,23.0,46,0.00,,,0.00,weatherlink.com 1.10,2013-05-24 22:47:00,
2013-05-24 17:02:00,76.1,54.0,25.58,East,95,13.0,22.0,47,0.00,,,0.00,weatherlink.com 1.10,2013-05-24 23:02:00,
2013-05-24 17:17:00,76.0,52.0,25.58,East,98,13.0,23.0,43,0.00,,,0.00,weatherlink.com 1.10,2013-05-24 23:17:00,
2013-05-24 17:32:00,75.3,52.0,25.57,ESE,108,14.0,18.0,44,0.00,,,0.00,weatherlink.com 1.10,2013-05-24 23:32:00,
2013-05-24 17:47:00,76.0,51.0,25.56,ESE,112,15.0,21.0,42,0.00,,,0.00,weatherlink.com 1.10,2013-05-24 23:47:00,
2013-05-24 18:02:00,75.8,52.0,25.56,ESE,114,15.0,21.0,43,0.00,,,0.00,weatherlink.com 1.10,2013-05-25 00:02:00,
2013-05-24 18:17:00,75.2,49.0,25.56,East,96,10.0,21.0,40,0.00,,,0.00,weatherlink.com 1.10,2013-05-25 00:17:00,
2013-05-24 18:32:00,74.5,50.0,25.56,East,91,16.0,22.0,42,0.00,,,0.00,weatherlink.com 1.10,2013-05-25 00:32:00,
2013-05-24 18:47:00,74.0,48.0,25.56,ESE,107,12.0,17.0,40,0.00,,,0.00,weatherlink.com 1.10,2013-05-25 00:47:00,
2013-05-24 19:02:00,72.8,49.0,25.56,East,81,11.0,19.0,43,0.00,,,0.00,weatherlink.com 1.10,2013-05-25 01:02:00,
2013-05-24 19:17:00,71.2,50.0,25.57,ENE,64,17.0,17.0,48,0.00,,,0.00,weatherlink.com 1.10,2013-05-25 01:17:00,
2013-05-24 19:32:00,70.7,51.0,25.56,ENE,67,17.0,17.0,50,0.00,,,0.00,weatherlink.com 1.10,2013-05-25 01:32:00,
2013-05-24 19:47:00,69.7,53.0,25.56,East,94,13.0,17.0,55,0.00,,,0.00,weatherlink.com 1.10,2013-05-25 01:47:00,
2013-05-24 20:17:00,67.4,56.0,25.56,East,84,9.0,13.0,67,0.00,,,0.00,weatherlink.com 1.10,2013-05-25 02:17:00,
2013-05-24 20:32:00,66.2,56.0,25.56,ENE,69,10.0,12.0,70,0.00,,,0.00,weatherlink.com 1.10,2013-05-25 02:32:00,
2013-05-24 20:47:00,65.0,55.0,25.56,ENE,65,14.0,15.0,71,0.00,,,0.00,weatherlink.com 1.10,2013-05-25 02:47:00,
2013-05-24 21:02:00,63.9,55.0,25.57,ENE,77,11.0,13.0,72,0.00,,,0.00,weatherlink.com 1.10,2013-05-25 03:02:00,
2013-05-24 21:17:00,63.7,55.0,25.58,East,85,10.0,16.0,73,0.00,,,0.00,weatherlink.com 1.10,2013-05-25 03:17:00,
2013-05-24 21:32:00,62.9,55.0,25.58,ENE,63,6.0,12.0,75,0.00,,,0.00,weatherlink.com 1.10,2013-05-25 03:32:00,
2013-05-24 21:47:00,62.3,55.0,25.59,ENE,68,7.0,9.0,78,0.00,,,0.00,weatherlink.com 1.10,2013-05-25 03:47:00,
2013-05-24 22:02:00,63.1,55.0,25.60,ENE,73,9.0,13.0,76,0.00,,,0.00,weatherlink.com 1.10,2013-05-25 04:02:00,
2013-05-24 22:17:00,63.3,55.0,25.59,East,94,13.0,13.0,75,0.00,,,0.00,weatherlink.com 1.10,2013-05-25 04:17:00,
2013-05-24 22:32:00,63.2,56.0,25.59,East,94,8.0,14.0,76,0.00,,,0.00,weatherlink.com 1.10,2013-05-25 04:32:00,
2013-05-24 22:47:00,62.6,55.0,25.58,ENE,68,9.0,12.0,76,0.00,,,0.00,weatherlink.com 1.10,2013-05-25 04:47:00,
2013-05-24 23:02:00,61.7,54.0,25.58,ENE,69,8.0,12.0,77,0.00,,,0.00,weatherlink.com 1.10,2013-05-25 05:02:00,
2013-05-24 23:17:00,60.4,54.0,25.57,ENE,63,11.0,12.0,79,0.00,,,0.00,weatherlink.com 1.10,2013-05-25 05:17:00,
2013-05-24 23:33:00,59.7,54.0,25.57,ENE,63,8.0,12.0,80,0.00,,,0.00,weatherlink.com 1.10,2013-05-25 05:33:00,
2013-05-24 23:48:00,59.2,53.0,25.57,ENE,67,11.0,11.0,81,0.00,,,0.00,weatherlink.com 1.10,2013-05-25 05:48:00,